Wind_Speed
26 24 25 26 27 26 26 26 26 25 26 25 24 26 26 27 29 30 32 33 33 33 33 34 34 36 37 37 38 39 41 42 43 43 43 44 45 46 47 50 50 50 50
28 27 28 28 30 30 30 30 30 31 30 30 30 30 31 30 30 31 32 34 36 37 38 40 43 43 45 47 45 44 43 45 47 47 48 49 48 49 52 54 53 52 53
32 30 30 30 30 31 30 31 32 33 33 34 35 34 33 33 34 35 37 40 41 42 44 45 46 47 48 49 50 50 49 50 51 52 51 51 52 54 54 53 52 53 55
36 35 34 33 34 34 33 34 35 35 35 36 37 38 38 40 41 42 44 46 48 49 50 50 50 51 51 50 50 51 53 53 52 54 56 57 58 57 54 54 54 56 58
39 39 39 38 37 37 38 38 39 39 39 40 41 42 44 45 47 48 50 51 52 53 55 54 54 53 52 54 54 54 54 55 56 57 59 59 60 59 59 59 58 59 61
43 43 42 41 41 41 41 41 42 41 42 44 45 48 48 48 50 53 54 54 55 55 56 56 56 57 57 59 59 57 56 57 59 59 59 59 60 60 60 61 62 61 61
46 45 44 43 43 44 44 44 46 47 47 48 50 52 53 54 54 55 55 57 57 58 59 59 58 58 58 57 57 58 59 58 58 59 59 60 59 60 62 63 63 65 64
52 50 48 47 47 47 47 48 49 50 50 52 53 55 55 55 56 56 55 55 57 57 59 59 60 60 59 58 58 58 57 57 59 60 61 62 63 64 65 65 66 66 67
57 55 55 52 51 50 52 52 53 55 55 55 57 58 58 57 58 59 60 60 58 59 59 60 61 61 61 61 61 61 62 64 66 66 65 65 66 66 67 68 69 72 72
61 59 57 56 55 54 57 59 60 61 61 62 62 64 63 63 62 62 63 64 64 64 63 62 61 62 63 64 65 66 67 67 67 67 68 67 66 68 70 71 72 73 74
65 64 63 63 62 63 63 65 64 64 64 65 66 64 65 65 64 65 65 65 65 65 63 63 63 63 63 64 64 64 67 67 66 66 67 70 70 71 72 74 73 75 76
70 68 67 67 67 68 69 69 69 67 69 65 63 62 63 64 64 63 63 63 65 65 64 64 64 63 62 63 65 65 65 66 68 70 69 69 70 72 72 73 75 72 68
76 73 71 70 72 72 67 65 64 63 61 60 61 61 63 62 63 62 63 63 64 64 64 64 63 64 63 64 65 67 68 68 68 67 68 69 68 71 71 65 62 61 58
77 76 74 73 71 68 65 64 64 61 60 60 61 61 62 63 63 65 65 64 65 67 67 67 66 64 66 66 69 66 68 68 67 68 67 69 67 65 64 62 56 53 51
70 69 68 67 64 62 62 62 62 62 61 63 65 65 67 68 67 67 67 69 69 67 68 67 67 68 66 69 67 67 68 67 66 66 65 64 61 58 56 54 50 49 44
66 67 66 66 65 63 64 66 68 68 67 68 69 69 70 72 72 70 71 70 69 68 69 68 67 67 68 69 69 68 67 68 65 66 65 59 56 58 58 54 51 48 46
69 69 71 70 69 70 70 71 71 71 70 71 71 71 71 71 71 70 71 69 67 67 68 70 70 70 70 70 67 68 67 65 66 61 59 53 55 60 59 58 52 51 52
69 70 69 69 69 70 70 71 71 72 73 74 73 71 69 71 72 71 71 71 72 74 74 75 74 72 69 69 69 69 68 67 66 64 62 60 61 64 62 63 59 57 55
71 70 72 71 72 73 74 74 73 73 74 74 72 71 71 71 73 76 75 76 76 76 74 73 73 69 68 70 69 69 69 69 69 66 62 66 68 67 68 64 63 65 60
74 76 75 75 74 74 73 72 71 70 72 73 73 74 76 76 77 77 77 76 76 74 72 69 69 69 68 69 71 71 70 72 71 68 68 69 71 71 70 68 65 63 61
76 76 78 79 79 79 77 75 78 76 78 78 78 78 79 80 80 82 81 79 77 73 67 68 71 71 71 73 74 73 71 72 70 70 69 69 73 72 70 70 65 63 63
79 82 82 81 83 83 82 80 81 80 80 82 82 83 85 86 85 83 81 79 80 79 78 76 74 74 76 76 75 71 71 70 71 69 70 72 73 74 72 71 70 67 63
79 81 82 84 85 85 85 85 85 84 84 85 86 87 87 87 84 82 81 81 81 80 79 77 78 75 73 75 74 74 72 72 74 76 77 76 77 74 74 74 70 68 64
85 84 86 88 89 89 88 87 89 90 90 90 92 90 92 90 88 85 86 83 82 81 80 79 80 83 80 78 78 81 78 79 79 79 77 76 76 77 78 75 72 69 68
89 88 86 85 86 89 91 91 92 92 94 94 94 93 93 93 92 91 92 91 91 89 89 88 87 87 83 83 82 81 82 80 80 81 80 82 77 77 77 73 73 72 74
87 86 85 86 86 87 90 92 91 91 91 93 95 96 97 97 98 97 97 95 95 95 92 91 90 87 85 85 82 84 85 84 81 82 83 80 79 77 77 78 78 76 74
Wind_Direction
231 227 230 233 236 240 242 245 250 251 254 251 256 263 265 266 270 273 275 278 278 280 283 285 287 290 294 294 294 292 290 290 290 290 289 288 288 289 290 292 291 289 290
233 232 233 234 236 239 241 245 248 252 256 255 262 262 264 266 273 275 276 280 282 283 285 286 291 295 297 298 298 295 291 291 290 290 288 284 286 288 288 292 292 291 291
236 236 239 243 246 247 248 251 252 254 255 255 260 263 262 265 270 275 278 279 282 285 287 288 289 290 293 293 295 295 294 293 291 290 291 288 288 290 291 292 292 292 293
239 240 240 241 244 248 253 257 258 258 258 259 260 262 262 268 272 278 282 285 286 286 287 288 288 289 292 292 292 291 292 291 288 285 286 286 289 289 289 290 292 292 293
239 240 241 242 244 248 250 253 257 260 260 260 261 263 265 269 273 278 281 284 285 285 287 287 288 288 288 289 289 288 289 289 289 286 287 288 289 289 289 292 293 293 294
243 243 245 247 251 254 256 256 259 261 263 262 262 265 267 270 272 275 279 281 283 284 285 287 288 288 288 289 288 288 288 290 290 290 290 290 290 291 291 291 292 293 293
246 248 248 250 253 257 261 262 261 263 264 265 266 268 271 274 278 280 281 284 284 284 286 287 288 288 288 289 289 289 289 289 290 290 290 290 290 291 291 291 291 293 292
248 250 251 252 255 256 258 261 263 265 267 269 271 273 273 276 278 279 281 283 284 284 285 286 288 287 287 287 289 288 287 288 289 291 290 290 290 291 291 291 292 292 292
249 250 254 256 258 260 264 267 268 270 272 274 276 277 276 277 280 283 284 286 285 284 285 284 284 285 286 287 287 287 288 289 290 291 291 291 291 291 291 292 292 292 292
254 254 258 259 260 263 266 269 270 270 273 276 277 278 278 279 281 283 284 285 286 287 286 284 283 284 286 288 289 289 289 290 291 291 291 291 291 291 293 294 295 294 293
256 258 260 260 262 262 266 269 271 270 272 275 277 277 278 280 282 284 285 285 287 287 285 283 285 286 287 288 289 289 289 290 292 294 292 293 292 292 294 295 294 294 291
256 258 259 262 265 266 269 271 271 271 273 273 274 276 279 279 281 282 283 284 285 285 285 285 287 288 288 290 291 294 296 294 294 296 295 296 296 295 295 293 294 293 292
257 259 262 264 266 269 269 269 268 269 270 273 274 277 279 279 281 282 283 284 286 285 286 286 288 289 293 295 296 297 299 298 298 298 297 296 295 296 296 297 296 295 292
259 261 262 263 264 265 265 267 268 271 273 275 278 279 279 281 283 284 284 285 287 286 286 287 289 290 296 296 299 299 301 300 296 297 296 296 299 299 297 299 298 296 293
257 259 259 260 262 264 267 269 271 273 275 278 280 281 282 282 284 285 285 287 287 286 287 289 291 294 295 298 298 297 298 298 297 298 300 301 304 305 307 309 303 297 297
258 259 261 262 265 268 270 272 273 275 277 278 280 281 282 283 284 285 285 284 285 286 287 289 292 293 294 294 295 296 298 298 298 299 302 303 310 310 309 306 302 299 298
259 262 264 267 268 270 272 273 274 275 277 278 279 281 283 285 286 286 286 285 286 287 288 291 291 291 291 291 293 295 296 297 298 298 300 302 304 315 310 307 299 300 292
262 265 268 269 270 270 270 272 273 276 278 278 279 280 282 283 285 287 287 287 286 286 287 288 287 287 287 288 290 292 293 296 297 298 297 298 303 308 312 306 300 301 298
264 265 266 267 268 270 272 273 275 275 277 278 281 281 282 283 285 287 287 285 286 285 286 286 287 286 284 287 289 292 294 295 297 299 299 297 303 305 306 306 301 301 300
265 265 265 267 269 271 273 275 276 276 277 280 282 283 282 283 283 283 282 283 283 283 283 283 283 283 284 286 287 290 293 294 294 296 298 298 301 302 301 305 301 300 300
266 269 270 271 272 274 273 273 276 276 278 279 277 281 282 281 281 282 282 280 279 279 278 280 280 281 283 284 286 288 290 291 290 293 293 295 297 297 296 299 298 297 299
268 271 273 273 274 275 274 274 275 277 277 277 276 278 278 279 278 280 279 278 277 277 278 280 279 280 282 283 285 285 286 284 287 290 291 292 293 293 294 295 296 296 295
267 269 271 272 272 274 273 276 276 276 275 275 275 276 276 277 277 277 277 277 277 278 279 278 279 279 280 282 281 282 283 283 284 285 288 290 291 291 293 293 294 294 293
265 267 268 270 271 270 270 272 274 276 276 275 275 276 278 276 276 276 277 276 276 277 277 277 277 279 280 279 280 281 282 281 282 286 286 287 288 289 290 292 293 292 292
264 265 267 268 269 269 270 272 272 273 273 275 276 276 275 275 275 275 276 277 277 277 277 278 278 280 280 278 278 277 280 281 281 283 284 289 288 289 289 290 291 291 289
264 265 265 267 268 269 270 271 271 272 273 274 274 275 275 276 276 275 275 274 274 275 275 275 276 275 276 277 278 277 279 280 279 282 282 284 285 287 287 288 289 288 289
Height
10915 10919 10920 10921 10921 10923 10924 10925 10926 10927 10929 10930 10931 10932 10932 10933 10933 10932 10933 10933 10932 10932 10931 10930 10929 10928 10928 10926 10924 10921 10920 10918 10915 10913 10910 10908 10906 10903 10901 10898 10896 10892 10889
10912 10913 10914 10916 10917 10918 10920 10922 10923 10924 10925 10926 10927 10927 10928 10928 10928 10928 10927 10927 10927 10927 10927 10925 10923 10922 10920 10918 10918 10916 10914 10911 10909 10907 10905 10902 10899 10896 10893 10890 10887 10885 10881
10907 10909 10910 10912 10913 10915 10917 10918 10919 10920 10921 10922 10922 10923 10923 10922 10922 10922 10922 10921 10922 10921 10921 10920 10918 10916 10914 10912 10909 10907 10905 10903 10901 10899 10896 10893 10890 10887 10885 10881 10879 10876 10872
10902 10904 10906 10908 10910 10911 10912 10914 10915 10916 10917 10918 10918 10918 10918 10918 10918 10917 10917 10916 10914 10915 10914 10912 10912 10909 10907 10904 10902 10900 10897 10894 10892 10890 10888 10885 10882 10878 10875 10872 10869 10866 10863
10897 10899 10901 10903 10905 10906 10908 10910 10911 10912 10912 10912 10912 10912 10912 10912 10912 10911 10910 10909 10907 10906 10905 10904 10903 10901 10899 10897 10894 10892 10889 10886 10884 10881 10879 10875 10872 10869 10865 10862 10859 10855 10852
10891 10893 10896 10898 10900 10901 10903 10904 10905 10906 10907 10907 10907 10906 10906 10906 10905 10905 10904 10902 10901 10899 10896 10895 10893 10892 10891 10889 10886 10883 10880 10877 10874 10871 10868 10865 10861 10858 10854 10851 10848 10843 10840
10885 10887 10890 10892 10894 10895 10897 10898 10899 10900 10900 10900 10900 10900 10900 10899 10899 10898 10896 10895 10892 10890 10889 10887 10884 10882 10880 10878 10876 10874 10871 10868 10865 10862 10859 10854 10850 10847 10842 10838 10836 10831 10827
10878 10881 10883 10886 10887 10888 10890 10890 10891 10892 10893 10893 10893 10893 10892 10891 10890 10889 10888 10886 10884 10882 10879 10877 10875 10872 10869 10867 10865 10863 10860 10857 10854 10851 10848 10844 10840 10835 10831 10827 10823 10818 10814
10870 10873 10876 10878 10879 10881 10881 10883 10883 10883 10884 10885 10884 10884 10882 10881 10880 10879 10877 10876 10873 10871 10869 10867 10864 10862 10859 10856 10855 10852 10850 10846 10843 10839 10835 10831 10827 10822 10817 10814 10810 10804 10799
10861 10865 10869 10870 10871 10873 10873 10874 10875 10875 10875 10876 10876 10875 10874 10873 10871 10870 10868 10865 10862 10861 10858 10856 10854 10851 10849 10846 10843 10840 10837 10833 10830 10826 10821 10818 10814 10808 10804 10800 10796 10791 10785
10853 10857 10860 10861 10862 10864 10865 10865 10867 10867 10867 10866 10866 10866 10864 10863 10862 10860 10858 10855 10851 10850 10847 10845 10843 10841 10838 10835 10832 10828 10825 10821 10817 10813 10808 10806 10802 10796 10790 10785 10781 10777 10771
10844 10848 10849 10852 10854 10855 10856 10857 10857 10858 10858 10856 10855 10855 10854 10852 10851 10849 10847 10843 10842 10839 10836 10833 10832 10829 10826 10823 10819 10815 10811 10808 10803 10799 10794 10790 10787 10781 10775 10770 10766 10761 10757
10835 10838 10841 10843 10844 10845 10846 10847 10847 10847 10846 10846 10845 10845 10842 10840 10839 10837 10835 10833 10831 10827 10823 10821 10820 10817 10813 10809 10806 10802 10798 10794 10789 10785 10781 10776 10772 10767 10760 10755 10751 10747 10743
10824 10828 10831 10832 10833 10835 10836 10836 10836 10836 10837 10835 10834 10832 10830 10827 10827 10824 10823 10821 10818 10814 10810 10809 10807 10805 10801 10797 10794 10789 10784 10780 10776 10772 10768 10763 10758 10753 10748 10744 10739 10736 10732
10814 10818 10820 10821 10822 10823 10825 10825 10826 10825 10825 10824 10822 10820 10817 10815 10814 10812 10809 10808 10805 10801 10796 10795 10794 10791 10788 10784 10781 10778 10773 10768 10763 10760 10755 10750 10744 10740 10736 10733 10728 10725 10722
10803 10805 10809 10811 10813 10814 10814 10814 10813 10812 10813 10812 10809 10807 10804 10800 10801 10800 10796 10793 10790 10787 10783 10782 10780 10777 10774 10771 10769 10765 10760 10755 10750 10747 10742 10738 10734 10730 10726 10722 10719 10716 10712
10792 10796 10797 10802 10804 10803 10803 10801 10800 10799 10799 10798 10796 10794 10791 10786 10785 10785 10783 10779 10777 10774 10771 10769 10767 10764 10761 10757 10754 10751 10747 10742 10738 10734 10732 10727 10723 10720 10716 10713 10709 10705 10702
10785 10787 10788 10789 10789 10788 10789 10789 10787 10787 10785 10783 10782 10781 10777 10773 10770 10770 10769 10766 10764 10762 10759 10757 10753 10751 10747 10743 10741 10738 10735 10730 10726 10723 10720 10717 10713 10710 10706 10702 10698 10695 10692
10773 10775 10775 10775 10774 10773 10773 10775 10775 10774 10771 10768 10767 10766 10764 10762 10757 10755 10754 10752 10750 10747 10745 10742 10740 10737 10733 10730 10727 10724 10721 10716 10713 10710 10707 10704 10700 10697 10694 10691 10687 10684 10680
10757 10759 10761 10761 10760 10758 10760 10760 10760 10759 10757 10754 10753 10751 10749 10747 10745 10740 10739 10737 10735 10732 10731 10729 10726 10722 10720 10717 10712 10711 10707 10703 10699 10696 10693 10689 10686 10683 10681 10678 10675 10671 10667
10744 10746 10745 10746 10744 10744 10745 10745 10744 10743 10742 10742 10738 10735 10733 10731 10730 10726 10723 10722 10721 10718 10716 10715 10711 10708 10706 10703 10698 10697 10695 10690 10685 10683 10680 10677 10673 10669 10666 10664 10661 10657 10654
10730 10731 10731 10731 10728 10727 10727 10727 10728 10728 10726 10723 10721 10719 10714 10711 10710 10710 10708 10703 10702 10700 10700 10698 10696 10693 10690 10687 10684 10683 10681 10677 10673 10671 10666 10663 10659 10655 10651 10649 10646 10643 10640
10719 10719 10717 10715 10714 10713 10710 10708 10707 10709 10708 10706 10703 10697 10695 10694 10693 10692 10689 10688 10682 10680 10681 10680 10678 10676 10675 10672 10668 10668 10665 10662 10658 10655 10653 10649 10645 10640 10636 10633 10630 10628 10626
10705 10703 10701 10698 10696 10695 10694 10694 10691 10688 10686 10684 10682 10680 10676 10675 10674 10672 10670 10670 10666 10663 10662 10660 10660 10657 10660 10656 10653 10650 10649 10646 10642 10639 10636 10633 10629 10626 10621 10618 10615 10612 10610
10687 10686 10685 10683 10680 10679 10676 10676 10674 10672 10669 10664 10661 10659 10655 10653 10653 10653 10650 10649 10648 10647 10646 10642 10641 10639 10638 10638 10636 10633 10631 10630 10627 10625 10619 10616 10613 10609 10605 10603 10599 10596 10594
10668 10669 10669 10668 10665 10663 10660 10658 10656 10654 10650 10648 10644 10638 10633 10634 10631 10629 10628 10628 10625 10625 10626 10624 10623 10623 10619 10619 10617 10617 10614 10611 10609 10607 10604 10601 10596 10593 10590 10586 10583 10580 10578